AT160 Weather Reports


time (UTC)temp
C
wind
direction
speed
KPH
gust
KPH
rain 1hr
cm
rain 24hr
cm
rain mn
cm
humidity
%
barometer
mb
20260506153326 21 143 3.2 22.5 0.00 0.00 0.00 60 1012.7
20260506152336 21 181 1.6 11.3 0.00 0.00 0.00 60 1012.7
20260506151830 21 138 1.6 11.3 0.00 0.00 0.00 60 1012.7
20260506151538 21 182 3.2 12.9 0.00 0.00 0.00 62 1012.7
20260506151328 21 128 3.2 12.9 0.00 0.00 0.00 61 1012.7
20260506150321 21 123 3.2 11.3 0.00 0.00 0.00 63 1012.7
20260506145818 21 186 4.8 12.9 0.00 0.00 0.00 63 1012.6
20260506145617 21 143 4.8 16.1 0.00 0.00 0.00 62 1012.6
20260506145327 21 134 4.8 12.9 0.00 0.00 0.00 63 1012.6
20260506144319 21 184 3.2 16.1 0.00 0.00 0.00 62 1012.7
20260506143811 21 162 3.2 11.3 0.00 0.00 0.00 62 1012.7
20260506143521 21 136 4.8 12.9 0.00 0.00 0.00 61 1012.8
20260506143311 21 147 4.8 11.3 0.00 0.00 0.00 62 1012.7
20260506142307 21 116 4.8 12.9 0.00 0.00 0.00 61 1012.8
20260506141809 21 144 4.8 11.3 0.00 0.00 0.00 62 1012.8
20260506141449 21 152 4.8 12.9 0.00 0.00 0.00 64 1012.8
20260506141305 21 150 4.8 12.9 0.00 0.00 0.00 62 1012.8
20260506140309 21 59 6.4 14.5 0.00 0.00 0.00 64 1012.8
20260506135805 21 162 6.4 16.1 0.00 0.00 0.00 64 1012.9
20260506135619 21 160 6.4 11.3 0.00 0.00 0.00 60 1012.9
20260506135319 21 131 6.4 12.9 0.00 0.00 0.00 62 1012.9
20260506134301 21 155 4.8 11.3 0.00 0.00 0.00 60 1013.0
20260506133805 21 126 4.8 11.3 0.00 0.00 0.00 60 1013.0
20260506133257 21 161 3.2 11.3 0.00 0.00 0.00 64 1013.0
20260506132802 21 121 4.8 11.3 0.00 0.00 0.00 66 1013.0
20260506132300 21 119 4.8 11.3 0.00 0.00 0.00 66 1013.0
20260506131756 21 119 4.8 11.3 0.00 0.00 0.00 67 1013.0
20260506131251 21 133 6.4 12.9 0.00 0.00 0.00 67 1013.1
20260506130753 21 145 6.4 12.9 0.00 0.00 0.00 67 1013.1
20260506130303 21 131 6.4 11.3 0.00 0.00 0.00 67 1013.1
20260506125944 21 137 8.0 12.9 0.00 0.00 0.00 68 1013.3
20260506125755 20 189 8.0 16.1 0.00 0.00 0.00 67 1013.3
20260506124757 21 168 8.0 17.7 0.00 0.00 0.00 68 1013.3
20260506124250 21 121 8.0 17.7 0.00 0.00 0.00 68 1013.4
20260506123746 21 124 8.0 16.1 0.00 0.00 0.00 67 1013.4
20260506123246 21 143 6.4 16.1 0.00 0.00 0.00 67 1013.4
20260506122741 21 127 6.4 11.3 0.00 0.00 0.00 66 1013.5
20260506122447 21 143 6.4 11.3 0.00 0.00 0.00 64 1013.8
20260506122241 21 127 6.4 11.3 0.00 0.00 0.00 65 1013.5
20260506121748 21 123 6.4 11.3 0.00 0.00 0.00 64 1013.5
20260506120749 21 127 6.4 11.3 0.00 0.00 0.00 63 1013.8
20260506120252 21 143 6.4 12.9 0.00 0.00 0.00 61 1013.8
20260506115233 21 134 6.4 12.9 0.00 0.00 0.00 60 1013.9
20260506114737 21 107 4.8 11.3 0.00 0.00 0.00 61 1013.9
20260506114230 21 179 4.8 11.3 0.00 0.00 0.00 63 1014.0
20260506113746 21 150 6.4 11.3 0.00 0.00 0.00 64 1014.0
20260506113239 21 113 6.4 11.3 0.00 0.00 0.00 66 1014.0
20260506112738 20 113 6.4 11.3 0.00 0.00 0.00 65 1014.0
20260506112358 20 152 6.4 11.3 0.00 0.00 0.00 65 1014.1
20260506112234 20 119 8.0 11.3 0.00 0.00 0.00 65 1014.0
20260506112152 20 134 8.0 11.3 0.00 0.00 0.00 65 1014.1
20260506111753 20 140 6.4 11.3 0.00 0.00 0.00 66 1014.0
20260506110740 20 113 8.0 11.3 0.00 0.00 0.00 66 1014.1
20260506105734 20 109 6.4 11.3 0.00 0.00 0.00 65 1014.1
20260506105232 20 136 8.0 12.9 0.00 0.00 0.00 65 1014.1
20260506104731 20 116 8.0 12.9 0.00 0.00 0.00 63 1014.1
20260506104228 20 117 8.0 12.9 0.00 0.00 0.00 62 1014.3
20260506103724 20 134 6.4 12.9 0.00 0.00 0.00 61 1014.3
20260506103417 20 124 6.4 9.7 0.00 0.00 0.00 59 1014.4
20260506103227 20 140 6.4 11.3 0.00 0.00 0.00 61 1014.3
20260506102508 21 130 3.2 9.7 0.00 0.00 0.00 61 1014.4
20260506102234 20 134 4.8 9.7 0.00 0.00 0.00 60 1014.4
20260506101218 21 138 1.6 9.7 0.00 0.00 0.00 65 1014.4
20260506100916 21 80 1.6 6.4 0.00 0.00 0.00 69 1014.4
20260506100726 21 169 1.6 6.4 0.00 0.00 0.00 67 1014.4
20260506095720 21 141 3.2 9.7 0.00 0.00 0.00 69 1014.6
20260506095217 20 110 4.8 9.7 0.00 0.00 0.00 69 1014.6
20260506094722 20 126 1.6 9.7 0.00 0.00 0.00 67 1014.6
20260506094215 20 133 1.6 8.0 0.00 0.00 0.00 69 1014.7
20260506093708 20 96 4.8 9.7 0.00 0.00 0.00 70 1014.7
20260506093210 20 99 4.8 9.7 0.00 0.00 0.00 69 1014.7
20260506092659 20 110 3.2 9.7 0.00 0.00 0.00 68 1014.7
20260506092159 20 90 1.6 4.8 0.00 0.00 0.00 68 1014.7
20260506091657 20 88 0.0 3.2 0.00 0.00 0.00 69 1014.7
20260506091209 20 138 1.6 4.8 0.00 0.00 0.00 69 1014.6
20260506090710 20 120 1.6 4.8 0.00 0.00 0.00 69 1014.6
20260506090203 20 116 3.2 6.4 0.00 0.00 0.00 68 1014.6
20260506085155 20 123 1.6 4.8 0.00 0.00 0.00 69 1014.7
20260506084859 19 97 3.2 8.0 0.00 0.00 0.00 69 1014.5
20260506084653 19 110 1.6 6.4 0.00 0.00 0.00 70 1014.6
20260506084600 19 100 1.6 4.8 0.00 0.00 0.00 69 1014.6
20260506084250 19 86 3.2 8.0 0.00 0.00 0.00 70 1014.5
20260506082639 19 106 1.6 4.8 0.00 0.00 0.00 69 1014.5
20260506082345 19 104 0.0 4.8 0.00 0.00 0.00 70 1014.7
20260506082200 19 106 1.6 4.8 0.00 0.00 0.00 69 1014.5
20260506081703 19 106 1.6 4.8 0.00 0.00 0.00 69 1014.5
20260506080636 19 103 1.6 4.8 0.00 0.00 0.00 70 1014.7
20260506080456 18 38 1.6 8.0 0.00 0.00 0.00 69 1014.5
20260506080344 18 44 3.2 9.7 0.00 0.00 0.00 69 1014.5
20260506080147 19 117 3.2 8.0 0.00 0.00 0.00 70 1014.7
20260506073030 18 82 1.6 9.7 0.00 0.00 0.00 70 1014.5
20260506072646 18 1 4.8 11.3 0.00 0.00 0.00 71 1014.5
20260506072123 18 13 6.4 11.3 0.00 0.00 0.00 72 1014.5
20260506070712 17 4 8.0 11.3 0.00 0.00 0.00 72 1014.7
20260506062112 17 359 6.4 12.9 0.00 0.00 0.00 73 1014.8
20260506061608 17 344 6.4 12.9 0.00 0.00 0.00 73 1014.8
20260506061310 17 40 6.4 12.9 0.00 0.00 0.00 74 1014.8
20260506061104 17 0 6.4 12.9 0.00 0.00 0.00 74 1014.8
20260506060917 17 28 4.8 9.7 0.00 0.00 0.00 74 1014.6
20260506060827 16 24 4.8 9.7 0.00 0.00 0.00 75 1014.6
20260506060609 17 31 6.4 12.9 0.00 0.00 0.00 74 1014.8
20260506060125 17 0 6.4 12.9 0.00 0.00 0.00 74 1014.8
20260506051129 16 346 4.8 11.3 0.00 0.00 0.00 78 1014.7
20260506045036 15 347 1.6 8.0 0.00 0.00 0.00 80 1014.4
20260506044532 15 336 1.6 4.8 0.00 0.00 0.00 80 1014.4
20260506044043 15 325 1.6 4.8 0.00 0.00 0.00 80 1014.3
20260506043535 15 323 1.6 6.4 0.00 0.00 0.00 80 1014.3
20260506043036 15 313 0.0 6.4 0.00 0.00 0.00 80 1014.3
20260506042915 15 316 0.0 3.2 0.00 0.00 0.00 80 1014.3
20260506042027 15 322 0.0 4.8 0.00 0.00 0.00 80 1014.3
20260506041517 15 311 1.6 8.0 0.00 0.00 0.00 81 1014.3
20260506040956 14 294 1.6 8.0 0.00 0.00 0.00 81 1014.2
20260506040852 14 325 0.0 4.8 0.00 0.00 0.00 81 1014.2
20260506035934 14 357 0.0 3.2 0.00 0.00 0.00 80 1014.2
20260506035425 14 31 0.0 0.0 0.00 0.00 0.00 80 1014.0
20260506035317 14 31 0.0 0.0 0.00 0.00 0.00 79 1013.8
20260506035306 15 357 1.6 8.0 0.00 0.00 0.00 80 1013.6
20260506034949 14 31 0.0 0.0 0.00 0.00 0.00 80 1014.0
20260506033853 14 31 0.0 0.0 0.00 0.00 0.00 79 1013.8
20260506033516 14 285 0.0 3.2 0.00 0.00 0.00 78 1013.8
20260506033149 14 285 1.6 8.0 0.00 0.00 0.00 78 1013.7
20260506032726 15 294 3.2 8.0 0.00 0.00 0.00 78 1013.7
20260506032129 15 285 1.6 8.0 0.00 0.00 0.00 79 1013.7
20260506031602 15 278 1.6 8.0 0.00 0.00 0.00 78 1013.7
20260506031112 15 271 1.6 8.0 0.00 0.00 0.00 78 1013.7
20260506030633 15 280 1.6 8.0 0.00 0.00 0.00 79 1013.7
20260506030143 15 275 1.6 8.0 0.00 0.00 0.00 79 1013.6
20260506025620 15 271 1.6 8.0 0.00 0.00 0.00 79 1013.6
20260506024408 15 359 1.6 4.8 0.00 0.00 0.00 80 1013.6
20260506023830 15 357 0.0 8.0 0.00 0.00 0.00 80 1013.6
20260506023237 15 357 0.0 8.0 0.00 0.00 0.00 80 1013.6
20260506022733 15 357 1.6 6.4 0.00 0.00 0.00 80 1013.7
20260506022245 15 359 1.6 8.0 0.00 0.00 0.00 81 1013.7
20260506021723 15 359 3.2 8.0 0.00 0.00 0.00 81 1013.7
20260506021219 14 280 3.2 8.0 0.00 0.00 0.00 82 1013.8
20260506020705 14 272 1.6 8.0 0.00 0.00 0.00 83 1013.8
20260506020208 14 271 1.6 8.0 0.00 0.00 0.00 83 1013.8
20260506015708 14 285 1.6 8.0 0.00 0.00 0.00 84 1013.7
20260506015201 14 268 1.6 6.4 0.00 0.00 0.00 84 1013.7
20260506014704 14 239 3.2 8.0 0.00 0.00 0.00 85 1013.7
20260506014200 14 229 3.2 8.0 0.00 0.00 0.00 85 1013.7
20260506013655 14 256 1.6 8.0 0.00 0.00 0.00 85 1013.7
20260506013150 14 281 1.6 8.0 0.00 0.00 0.00 86 1013.7
20260506012827 14 241 1.6 8.0 0.00 0.00 0.00 86 1013.6
20260506012657 14 263 1.6 6.4 0.00 0.00 0.00 86 1013.6
20260506011652 14 248 1.6 8.0 0.00 0.00 0.00 86 1013.6
20260506011133 14 241 1.6 8.0 0.00 0.00 0.00 86 1013.7
20260506010631 14 253 1.6 8.0 0.00 0.00 0.00 87 1013.7
20260506010118 14 250 1.6 8.0 0.00 0.00 0.00 87 1013.7
20260506005828 14 253 0.0 4.8 0.00 0.00 0.00 88 1013.7
20260506005749 14 285 0.0 3.2 0.00 0.00 0.00 88 1013.7
20260506005624 14 256 1.6 8.0 0.00 0.00 0.00 87 1013.7
20260506005123 14 251 1.6 8.0 0.00 0.00 0.00 88 1013.7
20260506003535 14 356 0.0 4.8 0.00 0.00 0.00 89 1013.7
20260506003021 14 356 0.0 0.0 0.00 0.00 0.00 89 1013.7
20260506002510 14 357 0.0 3.2 0.00 0.00 0.00 90 1013.6
20260506002005 14 357 0.0 6.4 0.00 0.00 0.00 90 1013.6
20260506001451 14 357 1.6 6.4 0.00 0.00 0.00 90 1013.6
20260506000949 14 359 0.0 3.2 0.00 0.00 0.00 91 1013.6
20260506000450 14 357 0.0 0.0 0.00 0.00 0.00 91 1013.6
20260505235535 14 357 1.6 4.8 0.00 0.00 0.00 91 1013.6
20260505235120 14 357 1.6 6.4 0.00 0.00 0.00 91 1013.6
20260505235037 14 357 1.6 4.8 0.00 0.00 0.00 91 1013.6
20260505234024 14 359 1.6 6.4 0.00 0.00 0.00 91 1013.5
20260505233520 14 357 1.6 4.8 0.00 0.00 0.00 91 1013.5
20260505233017 14 357 1.6 4.8 0.00 0.00 0.00 91 1013.5
20260505232527 14 357 1.6 8.0 0.00 0.00 0.00 91 1013.6
20260505231948 14 359 1.6 8.0 0.00 0.00 0.00 91 1013.6
20260505231446 14 357 1.6 6.4 0.00 0.00 0.00 91 1013.6
20260505231007 14 356 1.6 6.4 0.00 0.00 0.00 91 1013.6
20260505230344 14 357 1.6 8.0 0.00 0.00 0.00 91 1013.6
20260505225853 14 357 1.6 8.0 0.00 0.00 0.00 91 1013.6
20260505225343 14 357 1.6 8.0 0.00 0.00 0.00 91 1013.6
20260505224404 14 357 1.6 8.0 0.00 0.00 0.00 91 1013.6
20260505223902 14 359 1.6 8.0 0.00 0.00 0.00 91 1013.6
20260505223405 14 357 1.6 8.0 0.00 0.00 0.00 91 1013.6
20260505222904 14 359 1.6 8.0 0.00 0.00 0.00 91 1013.6
20260505222811 14 357 0.0 6.4 0.00 0.00 0.00 91 1013.6
20260505221400 14 357 1.6 4.8 0.00 0.00 0.00 91 1013.5
20260505220907 14 357 1.6 4.8 0.00 0.00 0.00 91 1013.5
20260505220355 15 357 1.6 4.8 0.00 0.00 0.00 91 1013.5
20260505215854 15 359 1.6 4.8 0.00 0.00 0.00 91 1013.3
20260505215351 15 357 1.6 4.8 0.00 0.00 0.00 91 1013.3
20260505214849 15 357 1.6 4.8 0.00 0.00 0.00 91 1013.3
20260505214349 15 359 1.6 4.8 0.00 0.00 0.00 91 1013.2
20260505213835 15 357 1.6 8.0 0.00 0.00 0.00 91 1013.2
20260505213336 15 359 1.6 8.0 0.00 0.00 0.00 90 1013.2
20260505212826 15 281 1.6 6.4 0.00 0.00 0.00 90 1013.0
20260505212332 15 256 1.6 6.4 0.00 0.00 0.00 90 1013.1
20260505212105 15 233 1.6 8.0 0.00 0.00 0.00 89 1013.1
20260505211843 15 257 1.6 4.8 0.00 0.00 0.00 90 1013.1
20260505210827 15 257 1.6 9.7 0.00 0.00 0.00 89 1013.1
20260505210449 15 298 0.0 3.2 0.00 0.00 0.00 88 1013.1
20260505204815 15 260 0.0 4.8 0.00 0.00 0.00 88 1013.1
20260505204316 16 256 1.6 8.0 0.00 0.00 0.00 87 1013.0
20260505203823 16 287 1.6 8.0 0.00 0.00 0.00 87 1013.0
20260505203319 16 264 1.6 6.4 0.00 0.00 0.00 86 1013.0
20260505202814 16 277 1.6 9.7 0.00 0.00 0.00 86 1013.0
20260505202308 16 275 1.6 9.7 0.00 0.00 0.00 85 1013.0
20260505202023 16 260 1.6 11.3 0.00 0.00 0.00 84 1012.8
20260505201809 16 272 1.6 11.3 0.00 0.00 0.00 84 1013.0
20260505200759 16 230 1.6 11.3 0.00 0.00 0.00 84 1012.8
20260505200436 16 260 3.2 11.3 0.00 0.00 0.00 82 1012.7
20260505200302 16 216 1.6 8.0 0.00 0.00 0.00 83 1012.8
20260505195313 16 230 3.2 11.3 0.00 0.00 0.00 82 1012.7
20260505194925 16 192 1.6 9.7 0.00 0.00 0.00 81 1012.7
20260505194803 16 240 1.6 9.7 0.00 0.00 0.00 82 1012.7
20260505193757 16 200 1.6 11.3 0.00 0.00 0.00 81 1012.7
20260505193253 16 182 1.6 11.3 0.00 0.00 0.00 81 1012.7
20260505192752 16 202 1.6 12.9 0.00 0.00 0.00 80 1012.5
20260505192301 16 200 1.6 12.9 0.00 0.00 0.00 80 1012.5
20260505191755 16 160 3.2 9.7 0.00 0.00 0.00 79 1012.5
20260505191255 16 193 3.2 9.7 0.00 0.00 0.00 78 1012.4
20260505191154 16 172 3.2 11.3 0.00 0.00 0.00 76 1012.4
20260505190807 16 208 3.2 11.3 0.00 0.00 0.00 77 1012.4
20260505185748 16 222 3.2 12.9 0.00 0.00 0.00 76 1012.2
20260505185256 17 202 1.6 12.9 0.00 0.00 0.00 76 1012.2
20260505184753 16 202 1.6 9.7 0.00 0.00 0.00 75 1012.2
20260505184250 16 203 1.6 9.7 0.00 0.00 0.00 75 1012.0
20260505183737 16 196 1.6 9.7 0.00 0.00 0.00 75 1012.0
20260505183243 16 210 3.2 9.7 0.00 0.00 0.00 76 1012.0
20260505182731 16 213 1.6 9.7 0.00 0.00 0.00 77 1011.8
20260505182227 16 210 1.6 9.7 0.00 0.00 0.00 77 1011.8
20260505181724 16 182 1.6 9.7 0.00 0.00 0.00 78 1011.8
20260505181225 17 200 1.6 9.7 0.00 0.00 0.00 78 1011.7
20260505180718 17 176 3.2 11.3 0.00 0.00 0.00 79 1011.7
20260505180209 17 184 4.8 17.7 0.00 0.00 0.00 79 1011.7
20260505175704 17 186 4.8 17.7 0.00 0.00 0.00 80 1011.6
20260505175211 16 205 6.4 20.9 0.00 0.00 0.00 81 1011.6
20260505174707 16 217 4.8 20.9 0.00 0.00 0.00 83 1011.6
20260505174312 17 356 3.2 16.1 0.00 0.00 0.00 87 1011.3
20260505174205 16 154 3.2 11.3 0.00 0.00 0.00 85 1011.6
20260505173736 17 253 3.2 12.9 0.00 0.00 0.00 86 1011.6
20260505173209 17 167 3.2 16.1 0.00 0.00 0.00 86 1011.6
20260505172202 17 353 1.6 8.0 0.00 0.00 0.00 87 1011.3
20260505171652 17 354 3.2 11.3 0.00 0.00 0.00 86 1011.3
20260505171644 17 356 3.2 11.3 0.00 0.00 0.00 86 1011.4
20260505170649 17 356 4.8 11.3 0.00 0.00 0.00 85 1011.4
20260505170154 18 120 6.4 11.3 0.00 0.00 0.00 84 1011.4
20260505165848 18 128 8.0 19.3 0.00 0.00 0.00 78 1011.3
20260505165650 18 124 6.4 17.7 0.00 0.00 0.00 81 1011.2
20260505164642 19 150 8.0 19.3 0.00 0.00 0.00 74 1011.3
20260505164141 20 121 8.0 17.7 0.00 0.00 0.00 69 1011.1
20260505163647 21 171 6.4 17.7 0.00 0.00 0.00 64 1011.1
20260505163147 22 136 4.8 19.3 0.00 0.00 0.00 54 1011.1
20260505162647 23 119 3.2 19.3 0.00 0.00 0.00 46 1010.9
20260505162143 25 88 0.0 8.0 0.00 0.00 0.00 31 1010.9
20260505161639 25 171 0.0 8.0 0.00 0.00 0.00 30 1010.9
20260505161121 25 203 0.0 8.0 0.00 0.00 0.00 29 1010.9
20260505160623 25 217 0.0 9.7 0.00 0.00 0.00 29 1010.9
20260505160121 25 208 1.6 9.7 0.00 0.00 0.00 28 1010.9
20260505160106 26 191 1.6 9.7 0.00 0.00 0.00 27 1010.9